Peterborough Airport
CYPQ : now visible

Airfield :











YOU CAN JOIN US ON...

 
LOGIN :

Register | Disclaimer

   EN    FR    IT 

 









Legend :    VFR   Marginal VFR   IFR   Intensive IFR   Very Intensive IFR
Visi :
Ceiling :
>= 8 km
>= 3000ft
5 to 8 km
1000 to 3000 ft
1500m to 5 km
500 to 1000 ft
800 to 1500m
200 to 500 ft
< 800m
< 200 ft
Symbols :   Thunderstorms  Fog  Heavy snow  Heavy precipitations  Wind > 20 kt






- Airport Elevation : 628 ft
- IATA code : YPQ


CYPQ - Peterborough

CURRENT METAR :
  • 080501Z AUTO 07003KT 030V100 9SM SCT018 OVC042 06/05 A2963 RMK SLP038

EXPIRED METARs :
  • 080456Z AUTO VRB02KT 9SM BKN018 OVC042 06/05 A2963 RMK SLP039
  • 080400Z AUTO 10003KT 9SM OVC046 06/05 A2963 RMK SLP040
  • 080300Z AUTO 11002KT 9SM OVC055 06/06 A2965 RMK PRESFR SLP047
  • 080229Z AUTO VRB02KT 9SM FEW036 BKN060 OVC071 06/06 A2969 RMK SLP059

Expired Forecast.



MET'MAP, your aeronautical weather chart ! - Copyright ORBIFLY December 2007 - Disclaimer

ORBIFLY MET'MAP TEAM :

Programming & Development : Alexandra Zaïnal
Concept & original design : Baudouin d'Aumeries
Assistance for programming : Marc-Olivier Méhu
Technical & hardware support : Manuel Goepfert

Contact : metmap@orbifly.com




SOURCES & CREDITS :

   NOAA       Earth
Advisory